Location: Crayja
(6.2254°N, 10.6273°W)
Time: 14:32:17
(UTC+00:00)

Cosmos 1153 Rocket - Pass Details

Date: 17 February 2020
Orbit: 953 x 1007 km, 82.9° (Epoch: 04 April)

Event Time Altitude Azimuth Distance (km) Brightness Sun altitude
Rises 06:13:00 0° 353° (N) 3,615 7.3 -11.9°
Reaches altitude 10° 06:15:29 10° 352° (N) 2,670 6.6 -11.3°
Maximum altitude 06:21:34 76° 267° (W) 983 4.4 -9.8°
Drops below altitude 10° 06:27:42 10° 182° (S) 2,690 6.9 -8.3°
Sets 06:30:13 0° 180° (S) 3,644 7.6 -7.7°
